Regional Weather Roundup
Issued by NWS

Home | Current Version | Previous Version | Text Only | Print | Product List | Glossary Off
Versions: 1 2 3 4 5 6 7 8 9 10 11 12 13 14 15 16 17 18 19 20 21 22 23 24 25 26 27 28 29 30 31 32 33 34 35 36 37 38 39 40 41 42 43 44 45 46 47 48 49 50

942
ASUS45 KCYS 260810
RWRWY

WYOMING REGIONAL WEATHER ROUNDUP
NATIONAL WEATHER SERVICE CHEYENNE WY
200 AM MDT SUN MAR 26 2017

NOTE:  "FAIR" INDICATES FEW OR NO CLOUDS BELOW 12,000 FEET
WITH NO SIGNIFICANT WEATHER AND/OR OBSTRUCTIONS TO VISIBILITY.

WYZ001-260900-
YELLOWSTONE NATIONAL PARK

CITY           SKY/WX    TMP DP  RH WIND       PRES   REMARKS
LK YELLOWSTONE   N/A     24  22  91 CALM      29.99F
W YELLOWSTONE  NOT AVBL

$$
WYZ002>013-054>058-071-098>099-260900-
NORTHERN WYOMING

CITY           SKY/WX    TMP DP  RH WIND       PRES   REMARKS
JACKSON        FAIR      28  27  93 CALM      29.98S
CODY           FAIR      35  31  85 SW7       29.95S WCI  29
GREYBULL       FAIR      42  39  89 CALM      29.91S
WORLAND        CLOUDY    41  39  93 SW8       29.92S
SHERIDAN       LGT RAIN  38  36  92 S5        29.94F WCI  34
BUFFALO        LGT RAIN  36  33  89 NW8       29.93S WCI  30
GILLETTE       CLOUDY    41  38  89 N16       29.90S
HULETT         PTSUNNY   41  34  75 N10       29.89R
NEWCASTLE      CLOUDY    45  32  61 NW7       29.84R

$$
WYZ014>020-022>026-101>103-260900-
CENTRAL WYOMING

CITY           SKY/WX    TMP DP  RH WIND       PRES   REMARKS
BIG PINEY      FAIR      26  21  81 NW10      29.96F WCI  16
PINEDALE       FAIR      30  27  86 NW16      29.95S WCI  19
DUBOIS         FAIR      32  21  64 W15       29.93S WCI  22
LANDER         LGT RAIN  37  36  96 NE6       29.92R WCI  32
RIVERTON       LGT RAIN  37  35  92 N8        29.92S WCI  31
CASPER         LGT RAIN  38  36  92 N14       29.89R WCI  30
DOUGLAS        CLOUDY    42  33  70 NW13      29.88R

$$
WYZ021-027>030-104>119-260900-
SOUTHERN WYOMING

CITY           SKY/WX    TMP DP  RH WIND       PRES   REMARKS
EVANSTON       FAIR      30  26  85 CALM      30.01S
KEMMERER         N/A     28  27  93 NW8       29.99S WCI  20
FORT BRIDGER   FAIR      32  31  96 W9        30.03S WCI  24
ROCK SPRINGS   CLOUDY    37  33  85 W7        29.96R WCI  32
DIXON          DRIZZLE   39  37  90 CALM      29.94S
RAWLINS        CLOUDY    38  33  82 W13       29.89S WCI  30
SARATOGA       CLOUDY    37  37 100 S3        29.90S
LARAMIE        LGT RAIN  37  35  92 CALM      29.88F
CHEYENNE       CLOUDY    43  30  60 NW7       29.84F
TORRINGTON     FAIR      46  31  55 E8        29.79F
PINE BLUFFS    CLOUDY    41  28  60 SW3       29.83F

$$




USA.gov is the U.S. government's official web portal to all federal, state and local government web resources and services.